Location: Lower Kingswood
(51.2667°N, 0.2167°W)
Time: 12:58:54
(UTC+00:00)

CZ-4C R/B - Pass Details

Date: 26 September 2023
Orbit: 542 x 1454 km, 63.4° (Epoch: 10 December)

Event Time Altitude Azimuth Distance (km) Brightness Sun altitude
Rises 00:07:15 0° 315° (NW) 3,715 6.0 -39.7°
Reaches altitude 10° 00:09:38 10° 313° (NW) 2,885 5.3 -39.7°
Enters shadow 00:12:29 28° 309° (NW) 1,973 4.2 -39.6°
